Погода в Безенчуке

Погода в Безенчуке : погода сейчас, прогноз погоды и архив. Всё, что Вы хотите узнать о погоде в Безенчуке!

Хотите узнать прогноз погоды в Безенчуке? Тогда Вам сюда: Погода в Безенчуке

Поиск расширенной информации на нашем сайте:

Другие новости

Новости СМИ2

Главная страница сайта

Новости сайта

02.10.2013

Напоминаем, что на нашем новом сайте вы можете получить высокодетализированные прогнозы погоды по пунктам России, СНГ и мира (включающие важные для авиации метеовеличины, такие как направление и скорость ветра, видимость, явления погоды, количество и форма облачности, нижняя и верхняя граница облачности), а также ознакомиться с разнообразными материалами по авиационной метеорологии и подборкой полезных ссылок на эту тему.

Сайт Метеоцентр.Азия посвящён разработке технологий оптимизации авиаметеорологического обслуживания, включая проектирование и перспективное создание нескольких автоматизированных авиаметеорологических систем:
- система выпуска высокодетальных прогностических карт явлений погоды для нижнего воздушного пространства по России и ближнему зарубежью;
- система верификации прогнозов TAF (выпускаемых синоптиками официальных АМСГ РФ и ближнего зарубежья) и AUTOTAF (выпускаемых сайтом Метеоцентр.Азия) - выявление ошибок, онлайн-сопоставление с фактической погодой METAR, автоматическое внесение коррективов в прогнозы при резком отклонении фактической погоды от прогноза, подсчёт оправдываемости прогнозов по элементам и в целом;
- система обработки, анализа и отображения авиаметеорологической информации для применения провайдерами метеорологической информации.

Рекомендуем: Драйвера для ноутбуков asus драйвера asus для windows 7.

Погода в Безенчуке - сегодня

Время (UTC), дата Ветер
(°,м/с) 
Видим.   Явления Облачность Т
(°С)
Тd
(°С)
f(%) Тe
(°С)
Pmin
(гПа)
dP
(гПа)
Po
(мм)
O2
(г/м3)
Тmin Tmax R s Состояние
почвы
12 16.02.17 350 (С) 20000 м    1/0 верхняя 
[Ci fib]
-7.2 -11.9 69 -10  1021.9  0.7  762  316           
15 16.02.17 340 (С) 23000 м    ясно 
-10.2 -13.1 79 -13  1024.2  2.3  763  321    -6.5       
18 16.02.17 340 (С) 22000 м    ясно 
-12.8 -14.7 86 -16  1025.8  1.5  764  325           
21 16.02.17 320 (СЗ) 21000 м    ясно 
-13.6 -14.9 90 -14  1026.4  0.6  765  326           
00 17.02.17 290 (З) 23000 м    ясно 
-19.8 -21.4 87 -20  1027.1  0.5  765  334           
03 17.02.17 тихо ()   22000 м    ясно 
-23.1 -25.3 82 -23  1027.5  0.3  766  339  -23.1      48  равномерный
сухой снег
100% 
06 17.02.17 260 (З) 20000 м    8/8 600 м 
[Sc]
-16.3 -17.9 87 -16  1027.9  0.6  766  330  -23.1         
09 17.02.17 230 (ЮЗ) 20000 м    1/0 средняя 
[Ac trans]
-9.5 -13.6 72 -11  1027.3  -0.5  766  321           
12 17.02.17 230 (ЮЗ) 20000 м    1/0 верхняя 
[Ci fib]
-7.7 -12.6 68 -7  1025.9  -1.3  765  318           
15 17.02.17 200 (Ю) 23000 м    3/0 верхняя 
[Ci fib]
-15.8 -17.2 89 -16  1025.6  -0.5  764  328    -7.7       
18 17.02.17 200 (Ю) 22000 м    ясно 
-16.1 -17.3 90 -18  1024.8  -0.8  764  328           
21 17.02.17 200 (Ю) 23000 м    ясно 
-14.6 -16 89 -17  1023.1  -1.7  762  326           
00 18.02.17 190 (Ю) 21000 м    6/0 средняя 
[Ac trans]
-13.6 -15.5 86 -17  1021.3  -1.7  761  324           
03 18.02.17 190 (Ю) 22000 м    9/0 средняя 
[Ac trans]
-13.1 -15 86 -17  1018.8  -2.5  759  323  -20.3      48  равномерный
сухой снег
100% 
06 18.02.17 190 (Ю) 4000 м  слаб. снег  10/10 600 м 
[Sc]
-12 -14.2 84 -15  1017.7  -1  758  321           
09 18.02.17 200 (Ю) 4000 м  снег  10/10 600 м 
[Ns]
-9.9 -12 85 -13  1015.6  -2  757  318           
12 18.02.17 200 (Ю) 4000 м  снег  10/0 средняя 
[As trans]
-8.9 -10.8 86 -13  1013.6  -1.9  755  316           
15 18.02.17 200 (Ю) 6000 м  слаб. снег  10/8 600 м средняя 
[Sc|As trans]
-7.7 -9.2 89 -10  1013  -0.6  755  314    -7.7     
18 18.02.17 210 (ЮЗ) 20000 м  {снег}  10/10 600 м 
[Sc]
-5.8 -7 91 -7  1011.5  -1.4  754  311           
21 18.02.17 230 (ЮЗ) 3000 м  снег  10/10 600 м 
[Ns]
-2.9 -4.2 91 -5  1010.1  -1.3  753  307           
00 19.02.17 210 (ЮЗ) 20000 м  в посл. час снег  10/10 600 м 
[Ns]
-0.5 -1.4 94 -2  1008.6  -1.4  752  304           
03 19.02.17 240 (ЮЗ) 5{11}  20000 м    10/10 600 м 
[Sc]
+1.6 -0.4 87 -1  1007.8  -0.8  751  301  -7.6    0.4  48  равномерный
мокрый или
старый снег
100% 
06 19.02.17 270 (З) 7-12{12}  20000 м    9/6 600 м средняя 
[Sc|Ac As]
+2.1 -1.4 78 -1  1008.5  0.7  752  301           
09 19.02.17 280 (З) 6-11{12}  20000 м  {снег}  4/0 средняя 
[Ac trans]
+2.8 -1.8 72 1011.1  2.6  754  301           
12 19.02.17 290 (З) 3{11}  20000 м  {снег}  5/0 средняя, верхняя 
[Ac trans|Ci fib]
+2.9 -2.5 68 +2  1013.9  2.8  756  302           
Время (UTC), дата Ветер
(°,м/с) 
Видим.   Явления Облачность Т
(°С)
Тd
(°С)
f(%) Тe
(°С)
Pmin
(гПа)
dP
(гПа)
Po
(мм)
O2
(г/м3)
Тmin Tmax R s Состояние
почвы

Для получения пояснительной информации подведите курсор к названию столбца.

ПОГОДА в Безенчуке - архив

Всё, что Вы хотите узнать о погоде в Безенчуке - удобно и подробно!

Выберите нужную дату (начиная с 1 января 2015* года) и нажмите кнопку "Найти".
Будут отображены архивные сводки погоды по пункту Безенчук, начиная с указанной даты.


Отображать данные в формате CSV (для использования в таблицах Excel)


Внимание! Наш архив погоды предназначен исключительно для личного некоммерческого использования в познавательных целях. Если Вам необходимы официальные справки о состоянии погоды (для производственных, юридических, коммерческих и т.п. целей), обращайтесь в органы Росгидромета.

*Примечание: данная дата относится к архиву по метеостанциям СССР (Россия, СНГ, Балтия).
Архив по метеостанциям Зарубежной Европы и Азии (кроме Китая) хранится 10 дней, по другим регионам земного шара (Китай, Африка, Америка, Австралия, Океания) - 1 день.

Безенчук - район местоположения метеостанции


Название, широта, долгота, высота метеостанции:
Безенчук 53°ш. 49.4°д. 46 м над ур. моря [Российская Федерация]

Дополнительная информация

В oтличие oт бoльшинства пoгoдных сайтoв мы публикуем пoдрoбную метеoинфoрмацию в детальнoм прoфессиoнальнoм фoрмате.

Характеристики температуры и влажнoсти вoздуха измеряются на высoте 2 м в тени вдали oт зданий и деревьев.
Скoрoсть ветра измеряется на высoте 10 м (на урoвне рoста челoвека скoрoсть ветра ниже в 1.5-2 раза). Если метеoстанция нахoдится в гoрoде или в лесу, тo скoрoсть ветра занижена на 2-4 м/с пo сравнению с oткрытым местoм. Скoрoсть ветра над акватoриями крупных рек и oзёр, а также на вершинах хoлмoв на 2-5 м/с выше, чем в oбычных услoвиях.
Атмoсфернoе давление в разных тoчках местнoсти мoжет значительнo oтличаться oт давления на метеoстанции, в зависимoсти oт услoвий рельефа (при пoдъёме на 10 м давление пoнижается примернo на 1 мм рт.ст.).